| time (UTC) | temp F | wind direction | speed MPH | gust MPH | rain 1hr in | rain 24hr in | rain mn in | humidity % | barometer mb |
| 20260509011809 | 57 | 105 | 0.0 | 0.0 | 0.00 | 0.00 | 0.00 | 67 | 1045.5 |
| 20260509011306 | 57 | 115 | 0.0 | 0.0 | 0.00 | 0.00 | 0.00 | 64 | 1045.4 |
| 20260509010804 | 57 | 95 | 0.0 | 0.0 | 0.00 | 0.00 | 0.00 | 62 | 1045.3 |
| 20260509010300 | 58 | 108 | 0.0 | 0.0 | 0.00 | 0.00 | 0.00 | 63 | 1045.6 |
| 20260509005758 | 58 | 111 | 0.0 | 0.0 | 0.00 | 0.00 | 0.00 | 61 | 1045.4 |
| 20260509005256 | 60 | 130 | 0.0 | 0.0 | 0.00 | 0.00 | 0.00 | 58 | 1045.3 |
| 20260509004755 | 61 | 130 | 0.0 | 0.0 | 0.00 | 0.00 | 0.00 | 57 | 1045.4 |
| 20260509004252 | 63 | 115 | 0.0 | 0.0 | 0.00 | 0.00 | 0.00 | 49 | 1045.5 |
| 20260509003750 | 64 | 72 | 1.0 | 2.0 | 0.00 | 0.00 | 0.00 | 44 | 1045.4 |
| 20260509003248 | 64 | 99 | 0.0 | 0.0 | 0.00 | 0.00 | 0.00 | 44 | 1045.5 |
| 20260509002745 | 65 | 62 | 2.0 | 2.0 | 0.00 | 0.00 | 0.00 | 42 | 1045.7 |
| 20260509002242 | 65 | 55 | 2.0 | 3.0 | 0.00 | 0.00 | 0.00 | 40 | 1045.4 |
| 20260509001740 | 66 | 93 | 3.0 | 3.0 | 0.00 | 0.00 | 0.00 | 40 | 1045.7 |
| 20260509001235 | 66 | 101 | 1.0 | 1.0 | 0.00 | 0.00 | 0.00 | 41 | 1045.7 |
| 20260509000734 | 67 | 80 | 1.0 | 1.0 | 0.00 | 0.00 | 0.00 | 40 | 1045.8 |
| 20260509000231 | 67 | 105 | 1.0 | 2.0 | 0.00 | 0.00 | 0.00 | 40 | 1045.6 |
| 20260508235727 | 67 | 92 | 1.0 | 1.0 | 0.00 | 0.00 | 0.00 | 38 | 1045.7 |
| 20260508235224 | 67 | 80 | 2.0 | 3.0 | 0.00 | 0.00 | 0.00 | 38 | 1045.8 |
| 20260508234722 | 67 | 90 | 2.0 | 3.0 | 0.00 | 0.00 | 0.00 | 38 | 1045.7 |
| 20260508234218 | 67 | 333 | 1.0 | 3.0 | 0.00 | 0.00 | 0.00 | 39 | 1045.9 |
| 20260508233717 | 67 | 58 | 2.0 | 3.0 | 0.00 | 0.00 | 0.00 | 39 | 1045.8 |
| 20260508233215 | 67 | 89 | 1.0 | 3.0 | 0.00 | 0.00 | 0.00 | 40 | 1045.7 |
| 20260508232712 | 67 | 57 | 3.0 | 4.0 | 0.00 | 0.00 | 0.00 | 37 | 1045.8 |
| 20260508232208 | 68 | 128 | 3.0 | 6.0 | 0.00 | 0.00 | 0.00 | 37 | 1046.1 |
| 20260508231707 | 69 | 308 | 1.0 | 6.0 | 0.00 | 0.00 | 0.00 | 40 | 1046.0 |
| 20260508231203 | 69 | 75 | 2.0 | 7.0 | 0.00 | 0.00 | 0.00 | 37 | 1046.1 |
| 20260508230700 | 69 | 65 | 2.0 | 3.0 | 0.00 | 0.00 | 0.00 | 37 | 1046.3 |
| 20260508230156 | 70 | 48 | 4.0 | 8.0 | 0.00 | 0.00 | 0.00 | 34 | 1046.1 |
| 20260508225654 | 70 | 115 | 3.0 | 3.0 | 0.00 | 0.00 | 0.00 | 34 | 1046.0 |
| 20260508225150 | 71 | 58 | 3.0 | 3.0 | 0.00 | 0.00 | 0.00 | 35 | 1045.9 |
| 20260508224648 | 71 | 257 | 3.0 | 7.0 | 0.00 | 0.00 | 0.00 | 34 | 1045.9 |
| 20260508224145 | 71 | 153 | 4.0 | 7.0 | 0.00 | 0.00 | 0.00 | 33 | 1046.0 |
| 20260508223643 | 71 | 66 | 3.0 | 4.0 | 0.00 | 0.00 | 0.00 | 34 | 1045.7 |
| 20260508223140 | 72 | 112 | 3.0 | 7.0 | 0.00 | 0.00 | 0.00 | 33 | 1046.0 |
| 20260508222637 | 72 | 104 | 4.0 | 7.0 | 0.00 | 0.00 | 0.00 | 32 | 1046.0 |
| 20260508222134 | 73 | 216 | 3.0 | 3.0 | 0.00 | 0.00 | 0.00 | 34 | 1045.7 |
| 20260508221630 | 72 | 259 | 2.0 | 3.0 | 0.00 | 0.00 | 0.00 | 36 | 1045.7 |
| 20260508221126 | 72 | 105 | 3.0 | 6.0 | 0.00 | 0.00 | 0.00 | 35 | 1045.7 |
| 20260508220623 | 71 | 237 | 1.0 | 7.0 | 0.00 | 0.00 | 0.00 | 32 | 1045.7 |
| 20260508220120 | 72 | 71 | 4.0 | 4.0 | 0.00 | 0.00 | 0.00 | 37 | 1045.7 |
| 20260508215616 | 73 | 59 | 3.0 | 9.0 | 0.00 | 0.00 | 0.00 | 33 | 1045.9 |
| 20260508215113 | 73 | 199 | 2.0 | 4.0 | 0.00 | 0.00 | 0.00 | 31 | 1046.0 |
| 20260508214610 | 73 | 204 | 2.0 | 7.0 | 0.00 | 0.00 | 0.00 | 36 | 1045.9 |
| 20260508214107 | 72 | 257 | 6.0 | 9.0 | 0.00 | 0.00 | 0.00 | 34 | 1045.9 |
| 20260508213604 | 72 | 297 | 1.0 | 8.0 | 0.00 | 0.00 | 0.00 | 35 | 1046.0 |
| 20260508213100 | 73 | 91 | 4.0 | 6.0 | 0.00 | 0.00 | 0.00 | 35 | 1045.7 |
| 20260508212557 | 73 | 183 | 3.0 | 8.0 | 0.00 | 0.00 | 0.00 | 30 | 1045.7 |
| 20260508212053 | 73 | 248 | 2.0 | 9.0 | 0.00 | 0.00 | 0.00 | 35 | 1045.9 |
| 20260508211548 | 72 | 191 | 2.0 | 4.0 | 0.00 | 0.00 | 0.00 | 33 | 1045.8 |
| 20260508211045 | 72 | 104 | 3.0 | 7.0 | 0.00 | 0.00 | 0.00 | 33 | 1046.0 |
| 20260508210542 | 72 | 180 | 5.0 | 11.0 | 0.00 | 0.00 | 0.00 | 35 | 1046.0 |
| 20260508210039 | 71 | 188 | 2.0 | 9.0 | 0.00 | 0.00 | 0.00 | 36 | 1046.3 |
| 20260508205536 | 73 | 247 | 9.0 | 11.0 | 0.00 | 0.00 | 0.00 | 31 | 1046.3 |
| 20260508205032 | 73 | 269 | 3.0 | 8.0 | 0.00 | 0.00 | 0.00 | 35 | 1046.3 |
| 20260508204529 | 73 | 189 | 1.0 | 4.0 | 0.00 | 0.00 | 0.00 | 40 | 1046.4 |
| 20260508204025 | 72 | 266 | 5.0 | 8.0 | 0.00 | 0.00 | 0.00 | 33 | 1046.5 |
| 20260508203521 | 73 | 315 | 3.0 | 9.0 | 0.00 | 0.00 | 0.00 | 32 | 1046.8 |
| 20260508203017 | 73 | 246 | 7.0 | 9.0 | 0.00 | 0.00 | 0.00 | 33 | 1046.6 |
| 20260508202514 | 72 | 160 | 5.0 | 6.0 | 0.00 | 0.00 | 0.00 | 37 | 1046.6 |
| 20260508202011 | 73 | 2 | 6.0 | 8.0 | 0.00 | 0.00 | 0.00 | 32 | 1046.7 |
| 20260508201508 | 73 | 202 | 2.0 | 8.0 | 0.00 | 0.00 | 0.00 | 37 | 1047.0 |
| 20260508201005 | 72 | 158 | 1.0 | 4.0 | 0.00 | 0.00 | 0.00 | 35 | 1047.1 |
| 20260508200502 | 72 | 202 | 4.0 | 6.0 | 0.00 | 0.00 | 0.00 | 36 | 1047.4 |
| 20260508195956 | 72 | 143 | 2.0 | 7.0 | 0.00 | 0.00 | 0.00 | 32 | 1047.4 |
| 20260508195454 | 71 | 93 | 7.0 | 11.0 | 0.00 | 0.00 | 0.00 | 36 | 1047.5 |
| 20260508194950 | 71 | 107 | 8.0 | 8.0 | 0.00 | 0.00 | 0.00 | 33 | 1047.4 |
| 20260508194448 | 71 | 59 | 6.0 | 8.0 | 0.00 | 0.00 | 0.00 | 34 | 1047.0 |
| 20260508193944 | 71 | 114 | 7.0 | 10.0 | 0.00 | 0.00 | 0.00 | 35 | 1047.0 |
| 20260508193441 | 71 | 126 | 3.0 | 9.0 | 0.00 | 0.00 | 0.00 | 39 | 1047.0 |
| 20260508192937 | 70 | 94 | 6.0 | 10.0 | 0.00 | 0.00 | 0.00 | 34 | 1047.3 |
| 20260508192434 | 71 | 95 | 6.0 | 9.0 | 0.00 | 0.00 | 0.00 | 37 | 1047.1 |
| 20260508191931 | 71 | 197 | 4.0 | 7.0 | 0.00 | 0.00 | 0.00 | 39 | 1047.4 |
| 20260508191429 | 71 | 83 | 5.0 | 8.0 | 0.00 | 0.00 | 0.00 | 36 | 1047.3 |
| 20260508190925 | 71 | 84 | 3.0 | 6.0 | 0.00 | 0.00 | 0.00 | 36 | 1047.6 |
| 20260508190422 | 71 | 93 | 4.0 | 8.0 | 0.00 | 0.00 | 0.00 | 34 | 1047.7 |
| 20260508185918 | 70 | 136 | 5.0 | 7.0 | 0.00 | 0.00 | 0.00 | 38 | 1047.7 |
| 20260508185416 | 70 | 113 | 7.0 | 11.0 | 0.00 | 0.00 | 0.00 | 34 | 1047.8 |
| 20260508184913 | 70 | 75 | 10.0 | 13.0 | 0.00 | 0.00 | 0.00 | 33 | 1047.8 |
| 20260508184411 | 70 | 74 | 9.0 | 11.0 | 0.00 | 0.00 | 0.00 | 35 | 1047.8 |
| 20260508183907 | 70 | 89 | 4.0 | 8.0 | 0.00 | 0.00 | 0.00 | 37 | 1048.1 |
| 20260508183404 | 69 | 90 | 5.0 | 9.0 | 0.00 | 0.00 | 0.00 | 38 | 1048.0 |
| 20260508182859 | 70 | 83 | 6.0 | 11.0 | 0.00 | 0.00 | 0.00 | 35 | 1048.0 |
| 20260508182356 | 69 | 87 | 6.0 | 13.0 | 0.00 | 0.00 | 0.00 | 37 | 1048.4 |
| 20260508181852 | 69 | 180 | 1.0 | 8.0 | 0.00 | 0.00 | 0.00 | 42 | 1048.3 |
| 20260508181349 | 69 | 60 | 9.0 | 13.0 | 0.00 | 0.00 | 0.00 | 35 | 1048.5 |
| 20260508180846 | 70 | 129 | 6.0 | 11.0 | 0.00 | 0.00 | 0.00 | 35 | 1048.5 |
| 20260508180343 | 70 | 108 | 5.0 | 7.0 | 0.00 | 0.00 | 0.00 | 35 | 1048.5 |
| 20260508175839 | 70 | 186 | 2.0 | 4.0 | 0.00 | 0.00 | 0.00 | 40 | 1048.8 |
| 20260508175335 | 70 | 156 | 7.0 | 9.0 | 0.00 | 0.00 | 0.00 | 33 | 1048.9 |
| 20260508174834 | 71 | 103 | 4.0 | 7.0 | 0.00 | 0.00 | 0.00 | 37 | 1048.9 |
| 20260508174331 | 70 | 115 | 3.0 | 4.0 | 0.00 | 0.00 | 0.00 | 43 | 1049.2 |
| 20260508173827 | 69 | 116 | 4.0 | 4.0 | 0.00 | 0.00 | 0.00 | 42 | 1049.3 |
| 20260508173325 | 69 | 74 | 9.0 | 13.0 | 0.00 | 0.00 | 0.00 | 36 | 1049.2 |
| 20260508172820 | 69 | 87 | 4.0 | 8.0 | 0.00 | 0.00 | 0.00 | 35 | 1049.3 |
| 20260508172317 | 70 | 62 | 6.0 | 14.0 | 0.00 | 0.00 | 0.00 | 34 | 1049.4 |
| 20260508171814 | 69 | 138 | 1.0 | 3.0 | 0.00 | 0.00 | 0.00 | 38 | 1049.4 |
| 20260508171310 | 69 | 93 | 4.0 | 10.0 | 0.00 | 0.00 | 0.00 | 36 | 1049.8 |
| 20260508170807 | 68 | 93 | 6.0 | 7.0 | 0.00 | 0.00 | 0.00 | 40 | 1049.5 |
| 20260508170305 | 68 | 149 | 2.0 | 4.0 | 0.00 | 0.00 | 0.00 | 38 | 1049.8 |
| 20260508165801 | 68 | 115 | 5.0 | 7.0 | 0.00 | 0.00 | 0.00 | 40 | 1049.9 |
| 20260508165259 | 68 | 89 | 6.0 | 8.0 | 0.00 | 0.00 | 0.00 | 38 | 1050.0 |
| 20260508164754 | 69 | 107 | 6.0 | 9.0 | 0.00 | 0.00 | 0.00 | 37 | 1050.1 |
| 20260508164251 | 69 | 187 | 1.0 | 7.0 | 0.00 | 0.00 | 0.00 | 41 | 1050.4 |
| 20260508163750 | 68 | 58 | 5.0 | 6.0 | 0.00 | 0.00 | 0.00 | 43 | 1050.4 |
| 20260508163247 | 68 | 237 | 3.0 | 7.0 | 0.00 | 0.00 | 0.00 | 38 | 1050.5 |
| 20260508162742 | 68 | 80 | 4.0 | 9.0 | 0.00 | 0.00 | 0.00 | 36 | 1050.7 |
| 20260508162240 | 67 | 235 | 4.0 | 7.0 | 0.00 | 0.00 | 0.00 | 44 | 1050.6 |
| 20260508161737 | 67 | 298 | 5.0 | 9.0 | 0.00 | 0.00 | 0.00 | 42 | 1050.9 |
| 20260508161234 | 68 | 235 | 8.0 | 10.0 | 0.00 | 0.00 | 0.00 | 39 | 1050.7 |
| 20260508160732 | 67 | 214 | 2.0 | 4.0 | 0.00 | 0.00 | 0.00 | 40 | 1050.9 |
| 20260508160230 | 67 | 239 | 5.0 | 6.0 | 0.00 | 0.00 | 0.00 | 40 | 1050.9 |
| 20260508155726 | 67 | 191 | 5.0 | 7.0 | 0.00 | 0.00 | 0.00 | 39 | 1050.9 |
| 20260508155223 | 68 | 128 | 2.0 | 6.0 | 0.00 | 0.00 | 0.00 | 38 | 1050.9 |
| 20260508154720 | 68 | 138 | 4.0 | 4.0 | 0.00 | 0.00 | 0.00 | 40 | 1051.1 |
| 20260508154217 | 67 | 163 | 2.0 | 4.0 | 0.00 | 0.00 | 0.00 | 42 | 1051.0 |
| 20260508153714 | 67 | 55 | 4.0 | 7.0 | 0.00 | 0.00 | 0.00 | 43 | 1051.3 |
| 20260508153211 | 67 | 103 | 4.0 | 4.0 | 0.00 | 0.00 | 0.00 | 40 | 1051.0 |
| 20260508152708 | 66 | 75 | 1.0 | 3.0 | 0.00 | 0.00 | 0.00 | 45 | 1051.4 |
| 20260508152203 | 66 | 47 | 3.0 | 4.0 | 0.00 | 0.00 | 0.00 | 45 | 1051.4 |
| 20260508151700 | 66 | 121 | 3.0 | 6.0 | 0.00 | 0.00 | 0.00 | 44 | 1051.5 |
| 20260508151157 | 66 | 156 | 3.0 | 4.0 | 0.00 | 0.00 | 0.00 | 42 | 1051.4 |
| 20260508150653 | 66 | 97 | 3.0 | 6.0 | 0.00 | 0.00 | 0.00 | 43 | 1051.7 |
| 20260508150150 | 65 | 231 | 3.0 | 3.0 | 0.00 | 0.00 | 0.00 | 45 | 1051.5 |
| 20260508145646 | 65 | 260 | 4.0 | 4.0 | 0.00 | 0.00 | 0.00 | 45 | 1051.9 |
| 20260508145142 | 65 | 197 | 2.0 | 6.0 | 0.00 | 0.00 | 0.00 | 42 | 1051.5 |
| 20260508144640 | 65 | 113 | 1.0 | 6.0 | 0.00 | 0.00 | 0.00 | 44 | 1051.7 |
| 20260508144138 | 65 | 96 | 3.0 | 4.0 | 0.00 | 0.00 | 0.00 | 47 | 1051.5 |
| 20260508143635 | 64 | 203 | 1.0 | 3.0 | 0.00 | 0.00 | 0.00 | 49 | 1051.8 |
| 20260508143132 | 63 | 217 | 2.0 | 2.0 | 0.00 | 0.00 | 0.00 | 45 | 1051.5 |
| 20260508142628 | 62 | 212 | 1.0 | 3.0 | 0.00 | 0.00 | 0.00 | 51 | 1051.5 |
| 20260508142125 | 62 | 297 | 1.0 | 3.0 | 0.00 | 0.00 | 0.00 | 49 | 1051.7 |
| 20260508141621 | 62 | 185 | 2.0 | 3.0 | 0.00 | 0.00 | 0.00 | 51 | 1051.9 |
| 20260508141119 | 60 | 86 | 2.0 | 4.0 | 0.00 | 0.00 | 0.00 | 55 | 1051.5 |
| 20260508140616 | 59 | 142 | 0.0 | 2.0 | 0.00 | 0.00 | 0.00 | 55 | 1051.9 |
| 20260508140113 | 58 | 201 | 1.0 | 2.0 | 0.00 | 0.00 | 0.00 | 57 | 1051.5 |
| 20260508135608 | 58 | 44 | 2.0 | 6.0 | 0.00 | 0.00 | 0.00 | 55 | 1051.7 |
| 20260508135105 | 57 | 224 | 1.0 | 2.0 | 0.00 | 0.00 | 0.00 | 56 | 1051.5 |
| 20260508134602 | 57 | 162 | 3.0 | 3.0 | 0.00 | 0.00 | 0.00 | 59 | 1051.9 |
| 20260508134059 | 56 | 57 | 1.0 | 3.0 | 0.00 | 0.00 | 0.00 | 62 | 1051.7 |
| 20260508133555 | 55 | 172 | 3.0 | 3.0 | 0.00 | 0.00 | 0.00 | 60 | 1051.8 |
| 20260508133053 | 55 | 98 | 2.0 | 2.0 | 0.00 | 0.00 | 0.00 | 62 | 1051.7 |
| 20260508132550 | 55 | 186 | 2.0 | 3.0 | 0.00 | 0.00 | 0.00 | 60 | 1051.8 |
| 20260508132047 | 54 | 146 | 1.0 | 2.0 | 0.00 | 0.00 | 0.00 | 66 | 1051.9 |
| 20260508131542 | 53 | 153 | 1.0 | 3.0 | 0.00 | 0.00 | 0.00 | 63 | 1051.8 |
| 20260508131039 | 53 | 83 | 2.0 | 3.0 | 0.00 | 0.00 | 0.00 | 64 | 1051.7 |
| 20260508130536 | 52 | 70 | 2.0 | 2.0 | 0.00 | 0.00 | 0.00 | 66 | 1051.7 |
| 20260508130033 | 52 | 91 | 2.0 | 3.0 | 0.00 | 0.00 | 0.00 | 66 | 1051.9 |
| 20260508125528 | 51 | 134 | 2.0 | 4.0 | 0.00 | 0.00 | 0.00 | 69 | 1051.8 |
| 20260508125026 | 51 | 241 | 0.0 | 1.0 | 0.00 | 0.00 | 0.00 | 68 | 1051.7 |
| 20260508124524 | 51 | 92 | 1.0 | 4.0 | 0.00 | 0.00 | 0.00 | 68 | 1051.7 |
| 20260508124021 | 50 | 78 | 3.0 | 6.0 | 0.00 | 0.00 | 0.00 | 67 | 1051.8 |
| 20260508123520 | 50 | 165 | 2.0 | 2.0 | 0.00 | 0.00 | 0.00 | 68 | 1051.7 |
| 20260508123016 | 49 | 104 | 2.0 | 3.0 | 0.00 | 0.00 | 0.00 | 69 | 1051.8 |
| 20260508122513 | 49 | 107 | 2.0 | 4.0 | 0.00 | 0.00 | 0.00 | 70 | 1051.8 |
| 20260508122010 | 48 | 165 | 3.0 | 3.0 | 0.00 | 0.00 | 0.00 | 67 | 1051.4 |
| 20260508121508 | 47 | 133 | 2.0 | 6.0 | 0.00 | 0.00 | 0.00 | 71 | 1051.3 |
| 20260508121006 | 47 | 86 | 3.0 | 3.0 | 0.00 | 0.00 | 0.00 | 74 | 1051.5 |
| 20260508120503 | 46 | 151 | 1.0 | 2.0 | 0.00 | 0.00 | 0.00 | 76 | 1051.5 |
| 20260508120001 | 45 | 104 | 0.0 | 0.0 | 0.00 | 0.00 | 0.00 | 79 | 1051.4 |
| 20260508115458 | 45 | 127 | 2.0 | 2.0 | 0.00 | 0.00 | 0.00 | 79 | 1051.8 |
| 20260508114955 | 43 | 112 | 0.0 | 2.0 | 0.00 | 0.00 | 0.00 | 85 | 1051.4 |
| 20260508114452 | 41 | 78 | 1.0 | 1.0 | 0.00 | 0.00 | 0.00 | 96 | 1051.7 |
| 20260508113948 | 38 | 105 | 0.0 | 1.0 | 0.00 | 0.00 | 0.00 | 97 | 1051.5 |
| 20260508113446 | 37 | 265 | 0.0 | 0.0 | 0.00 | 0.00 | 0.00 | 96 | 1051.5 |
| 20260508112943 | 37 | 265 | 0.0 | 0.0 | 0.00 | 0.00 | 0.00 | 96 | 1051.3 |
| 20260508112439 | 37 | 265 | 0.0 | 0.0 | 0.00 | 0.00 | 0.00 | 96 | 1051.1 |
| 20260508111936 | 36 | 265 | 0.0 | 0.0 | 0.00 | 0.00 | 0.00 | 95 | 1051.2 |
| 20260508111433 | 36 | 265 | 0.0 | 0.0 | 0.00 | 0.00 | 0.00 | 95 | 1051.0 |
| 20260508110930 | 36 | 265 | 0.0 | 0.0 | 0.00 | 0.00 | 0.00 | 95 | 1051.0 |
| 20260508110428 | 36 | 266 | 0.0 | 0.0 | 0.00 | 0.00 | 0.00 | 95 | 1051.1 |
| 20260508105927 | 36 | 271 | 0.0 | 0.0 | 0.00 | 0.00 | 0.00 | 95 | 1050.9 |
| 20260508105424 | 36 | 271 | 0.0 | 0.0 | 0.00 | 0.00 | 0.00 | 95 | 1050.9 |
| 20260508104921 | 36 | 269 | 0.0 | 0.0 | 0.00 | 0.00 | 0.00 | 95 | 1050.9 |
| 20260508104419 | 36 | 270 | 0.0 | 0.0 | 0.00 | 0.00 | 0.00 | 95 | 1051.0 |
| 20260508103915 | 36 | 266 | 0.0 | 0.0 | 0.00 | 0.00 | 0.00 | 95 | 1050.9 |
| 20260508103412 | 36 | 259 | 0.0 | 0.0 | 0.00 | 0.00 | 0.00 | 94 | 1051.0 |
| 20260508102909 | 36 | 259 | 0.0 | 0.0 | 0.00 | 0.00 | 0.00 | 94 | 1050.9 |
| 20260508102408 | 36 | 259 | 0.0 | 0.0 | 0.00 | 0.00 | 0.00 | 94 | 1050.9 |
| 20260508101905 | 37 | 259 | 0.0 | 0.0 | 0.00 | 0.00 | 0.00 | 94 | 1050.7 |
| 20260508101402 | 37 | 259 | 0.0 | 0.0 | 0.00 | 0.00 | 0.00 | 94 | 1050.6 |
| 20260508100859 | 37 | 259 | 0.0 | 0.0 | 0.00 | 0.00 | 0.00 | 94 | 1050.8 |
| 20260508100358 | 37 | 259 | 0.0 | 0.0 | 0.00 | 0.00 | 0.00 | 94 | 1050.6 |
| 20260508095853 | 37 | 259 | 0.0 | 0.0 | 0.00 | 0.00 | 0.00 | 93 | 1050.7 |
| 20260508095351 | 37 | 259 | 0.0 | 0.0 | 0.00 | 0.00 | 0.00 | 93 | 1050.8 |
| 20260508094848 | 37 | 259 | 0.0 | 0.0 | 0.00 | 0.00 | 0.00 | 93 | 1050.8 |
| 20260508094345 | 37 | 258 | 0.0 | 0.0 | 0.00 | 0.00 | 0.00 | 93 | 1050.9 |
| 20260508093842 | 38 | 258 | 0.0 | 0.0 | 0.00 | 0.00 | 0.00 | 92 | 1050.8 |
| 20260508093339 | 38 | 258 | 0.0 | 0.0 | 0.00 | 0.00 | 0.00 | 92 | 1050.6 |
| 20260508092837 | 38 | 261 | 0.0 | 0.0 | 0.00 | 0.00 | 0.00 | 92 | 1050.9 |
| 20260508092334 | 38 | 261 | 0.0 | 0.0 | 0.00 | 0.00 | 0.00 | 91 | 1050.8 |
| 20260508091832 | 38 | 261 | 0.0 | 0.0 | 0.00 | 0.00 | 0.00 | 91 | 1050.8 |
| 20260508091328 | 38 | 267 | 0.0 | 0.0 | 0.00 | 0.00 | 0.00 | 90 | 1050.8 |
| 20260508090826 | 39 | 235 | 0.0 | 0.0 | 0.00 | 0.00 | 0.00 | 87 | 1050.7 |
| 20260508090325 | 40 | 150 | 0.0 | 0.0 | 0.00 | 0.00 | 0.00 | 86 | 1050.7 |
| 20260508085820 | 41 | 117 | 0.0 | 2.0 | 0.00 | 0.00 | 0.00 | 85 | 1050.6 |
| 20260508085317 | 40 | 49 | 0.0 | 0.0 | 0.00 | 0.00 | 0.00 | 89 | 1050.8 |
| 20260508084814 | 40 | 70 | 0.0 | 0.0 | 0.00 | 0.00 | 0.00 | 89 | 1050.7 |
| 20260508084311 | 40 | 131 | 0.0 | 0.0 | 0.00 | 0.00 | 0.00 | 89 | 1050.7 |
| 20260508083808 | 40 | 87 | 0.0 | 0.0 | 0.00 | 0.00 | 0.00 | 92 | 1050.7 |
| 20260508083306 | 40 | 99 | 0.0 | 0.0 | 0.00 | 0.00 | 0.00 | 96 | 1050.8 |
| 20260508082805 | 39 | 90 | 0.0 | 0.0 | 0.00 | 0.00 | 0.00 | 96 | 1050.9 |
| 20260508082306 | 38 | 89 | 0.0 | 0.0 | 0.00 | 0.00 | 0.00 | 96 | 1050.8 |
| 20260508081800 | 37 | 90 | 0.0 | 0.0 | 0.00 | 0.00 | 0.00 | 96 | 1050.7 |
| 20260508081257 | 37 | 0 | 0.0 | 0.0 | 0.00 | 0.00 | 0.00 | 96 | 1051.1 |
| 20260508080754 | 37 | 0 | 0.0 | 0.0 | 0.00 | 0.00 | 0.00 | 95 | 1050.7 |
| 20260508080252 | 37 | 0 | 0.0 | 0.0 | 0.00 | 0.00 | 0.00 | 95 | 1050.7 |
| 20260508075748 | 37 | 4 | 0.0 | 0.0 | 0.00 | 0.00 | 0.00 | 96 | 1050.7 |
| 20260508075245 | 37 | 57 | 0.0 | 0.0 | 0.00 | 0.00 | 0.00 | 96 | 1050.6 |
| 20260508074743 | 37 | 26 | 0.0 | 0.0 | 0.00 | 0.00 | 0.00 | 95 | 1050.7 |
| 20260508074240 | 37 | 0 | 0.0 | 0.0 | 0.00 | 0.00 | 0.00 | 95 | 1050.6 |
| 20260508073737 | 37 | 26 | 0.0 | 0.0 | 0.00 | 0.00 | 0.00 | 95 | 1050.7 |
| 20260508073235 | 37 | 18 | 0.0 | 0.0 | 0.00 | 0.00 | 0.00 | 95 | 1050.8 |
| 20260508072731 | 37 | 18 | 0.0 | 0.0 | 0.00 | 0.00 | 0.00 | 95 | 1050.7 |
| 20260508072228 | 38 | 21 | 0.0 | 0.0 | 0.00 | 0.00 | 0.00 | 95 | 1050.7 |
| 20260508071725 | 38 | 12 | 0.0 | 0.0 | 0.00 | 0.00 | 0.00 | 95 | 1050.7 |
| 20260508071223 | 38 | 59 | 0.0 | 0.0 | 0.00 | 0.00 | 0.00 | 95 | 1050.7 |
| 20260508070720 | 37 | 59 | 0.0 | 0.0 | 0.00 | 0.00 | 0.00 | 95 | 1050.5 |
| 20260508070219 | 38 | 59 | 0.0 | 0.0 | 0.00 | 0.00 | 0.00 | 95 | 1050.9 |
| 20260508065716 | 38 | 59 | 0.0 | 0.0 | 0.00 | 0.00 | 0.00 | 95 | 1050.9 |
| 20260508065214 | 38 | 59 | 0.0 | 0.0 | 0.00 | 0.00 | 0.00 | 95 | 1050.8 |
| 20260508064711 | 38 | 59 | 0.0 | 0.0 | 0.00 | 0.00 | 0.00 | 95 | 1050.8 |
| 20260508064209 | 38 | 59 | 0.0 | 0.0 | 0.00 | 0.00 | 0.00 | 95 | 1050.9 |
| 20260508063706 | 38 | 59 | 0.0 | 0.0 | 0.00 | 0.00 | 0.00 | 95 | 1051.0 |
| 20260508063204 | 38 | 54 | 0.0 | 0.0 | 0.00 | 0.00 | 0.00 | 95 | 1051.0 |
| 20260508062701 | 38 | 355 | 0.0 | 0.0 | 0.00 | 0.00 | 0.00 | 95 | 1050.9 |
| 20260508062158 | 38 | 77 | 0.0 | 0.0 | 0.00 | 0.00 | 0.00 | 95 | 1050.9 |
| 20260508061655 | 38 | 94 | 0.0 | 0.0 | 0.00 | 0.00 | 0.00 | 95 | 1051.0 |
| 20260508061153 | 38 | 94 | 0.0 | 0.0 | 0.00 | 0.00 | 0.00 | 95 | 1051.0 |
| 20260508060649 | 38 | 94 | 0.0 | 0.0 | 0.00 | 0.00 | 0.00 | 95 | 1051.0 |
| 20260508060147 | 38 | 86 | 0.0 | 0.0 | 0.00 | 0.00 | 0.00 | 95 | 1051.2 |
| 20260508055642 | 38 | 34 | 0.0 | 0.0 | 0.00 | 0.00 | 0.00 | 95 | 1051.2 |
| 20260508055139 | 38 | 346 | 0.0 | 0.0 | 0.00 | 0.00 | 0.00 | 95 | 1051.2 |
| 20260508054635 | 38 | 69 | 0.0 | 0.0 | 0.00 | 0.00 | 0.00 | 94 | 1051.2 |
| 20260508054133 | 38 | 300 | 0.0 | 1.0 | 0.00 | 0.00 | 0.00 | 94 | 1051.1 |
| 20260508053630 | 38 | 216 | 0.0 | 0.0 | 0.00 | 0.00 | 0.00 | 94 | 1051.4 |
| 20260508053128 | 38 | 313 | 0.0 | 0.0 | 0.00 | 0.00 | 0.00 | 94 | 1051.5 |
| 20260508052625 | 39 | 165 | 0.0 | 0.0 | 0.00 | 0.00 | 0.00 | 95 | 1051.4 |
| 20260508052122 | 38 | 78 | 0.0 | 0.0 | 0.00 | 0.00 | 0.00 | 94 | 1051.4 |
| 20260508051618 | 38 | 206 | 0.0 | 0.0 | 0.00 | 0.00 | 0.00 | 94 | 1051.5 |
| 20260508051113 | 39 | 206 | 0.0 | 0.0 | 0.00 | 0.00 | 0.00 | 94 | 1051.3 |
| 20260508050609 | 39 | 206 | 0.0 | 0.0 | 0.00 | 0.00 | 0.00 | 94 | 1051.4 |
| 20260508050108 | 39 | 206 | 0.0 | 0.0 | 0.00 | 0.00 | 0.00 | 94 | 1051.2 |
| 20260508045603 | 39 | 206 | 0.0 | 0.0 | 0.00 | 0.00 | 0.00 | 94 | 1051.2 |
| 20260508045101 | 39 | 206 | 0.0 | 0.0 | 0.00 | 0.00 | 0.00 | 93 | 1051.1 |
| 20260508044558 | 39 | 206 | 0.0 | 0.0 | 0.00 | 0.00 | 0.00 | 93 | 1051.0 |
| 20260508044054 | 40 | 206 | 0.0 | 0.0 | 0.00 | 0.00 | 0.00 | 93 | 1051.0 |
| 20260508043551 | 40 | 206 | 0.0 | 0.0 | 0.00 | 0.00 | 0.00 | 94 | 1050.9 |
| 20260508043049 | 40 | 206 | 0.0 | 0.0 | 0.00 | 0.00 | 0.00 | 94 | 1051.2 |
| 20260508042545 | 39 | 206 | 0.0 | 0.0 | 0.00 | 0.00 | 0.00 | 93 | 1050.9 |
| 20260508042042 | 40 | 206 | 0.0 | 0.0 | 0.00 | 0.00 | 0.00 | 93 | 1051.1 |
| 20260508041538 | 40 | 206 | 0.0 | 0.0 | 0.00 | 0.00 | 0.00 | 93 | 1051.1 |
| 20260508041035 | 40 | 206 | 0.0 | 0.0 | 0.00 | 0.00 | 0.00 | 93 | 1051.0 |
| 20260508040532 | 40 | 206 | 0.0 | 0.0 | 0.00 | 0.00 | 0.00 | 93 | 1050.9 |
| 20260508040030 | 40 | 206 | 0.0 | 0.0 | 0.00 | 0.00 | 0.00 | 93 | 1051.1 |
| 20260508035526 | 40 | 206 | 0.0 | 0.0 | 0.00 | 0.00 | 0.00 | 92 | 1050.9 |
| 20260508035024 | 40 | 206 | 0.0 | 0.0 | 0.00 | 0.00 | 0.00 | 92 | 1051.1 |
| 20260508034521 | 40 | 206 | 0.0 | 0.0 | 0.00 | 0.00 | 0.00 | 91 | 1051.1 |
| 20260508034018 | 40 | 206 | 0.0 | 0.0 | 0.00 | 0.00 | 0.00 | 91 | 1051.1 |
| 20260508033515 | 41 | 206 | 0.0 | 0.0 | 0.00 | 0.00 | 0.00 | 90 | 1051.2 |
| 20260508033013 | 41 | 206 | 0.0 | 0.0 | 0.00 | 0.00 | 0.00 | 90 | 1051.0 |
| 20260508032510 | 41 | 206 | 0.0 | 0.0 | 0.00 | 0.00 | 0.00 | 90 | 1051.1 |
| 20260508032007 | 42 | 206 | 0.0 | 0.0 | 0.00 | 0.00 | 0.00 | 90 | 1051.1 |
| 20260508031505 | 41 | 206 | 0.0 | 0.0 | 0.00 | 0.00 | 0.00 | 90 | 1051.0 |
| 20260508030959 | 41 | 206 | 0.0 | 0.0 | 0.00 | 0.00 | 0.00 | 89 | 1051.3 |
| 20260508030457 | 42 | 206 | 0.0 | 0.0 | 0.00 | 0.00 | 0.00 | 88 | 1051.5 |
| 20260508025954 | 42 | 206 | 0.0 | 0.0 | 0.00 | 0.00 | 0.00 | 89 | 1051.2 |
| 20260508025450 | 42 | 206 | 0.0 | 0.0 | 0.00 | 0.00 | 0.00 | 89 | 1051.2 |
| 20260508024948 | 42 | 206 | 0.0 | 0.0 | 0.00 | 0.00 | 0.00 | 88 | 1051.0 |
| 20260508024443 | 42 | 206 | 0.0 | 0.0 | 0.00 | 0.00 | 0.00 | 86 | 1051.1 |
| 20260508023940 | 42 | 206 | 0.0 | 0.0 | 0.00 | 0.00 | 0.00 | 84 | 1051.1 |
| 20260508023437 | 43 | 206 | 0.0 | 0.0 | 0.00 | 0.00 | 0.00 | 82 | 1051.0 |
| 20260508022935 | 44 | 206 | 0.0 | 0.0 | 0.00 | 0.00 | 0.00 | 83 | 1050.8 |
| 20260508022430 | 44 | 206 | 0.0 | 0.0 | 0.00 | 0.00 | 0.00 | 82 | 1050.8 |
| 20260508021927 | 45 | 205 | 0.0 | 0.0 | 0.00 | 0.00 | 0.00 | 81 | 1051.0 |
| 20260508021423 | 45 | 205 | 0.0 | 0.0 | 0.00 | 0.00 | 0.00 | 79 | 1050.9 |
| 20260508020919 | 45 | 206 | 0.0 | 0.0 | 0.00 | 0.00 | 0.00 | 79 | 1050.7 |
| 20260508020418 | 45 | 206 | 0.0 | 0.0 | 0.00 | 0.00 | 0.00 | 79 | 1050.8 |
| 20260508015914 | 45 | 207 | 0.0 | 0.0 | 0.00 | 0.00 | 0.00 | 81 | 1050.8 |
| 20260508015412 | 46 | 208 | 0.0 | 0.0 | 0.00 | 0.00 | 0.00 | 80 | 1050.9 |
| 20260508014908 | 46 | 208 | 0.0 | 0.0 | 0.00 | 0.00 | 0.00 | 78 | 1050.6 |
| 20260508014406 | 46 | 207 | 0.0 | 0.0 | 0.00 | 0.00 | 0.00 | 78 | 1050.7 |
| 20260508013902 | 46 | 208 | 0.0 | 0.0 | 0.00 | 0.00 | 0.00 | 80 | 1050.5 |
| 20260508013357 | 47 | 208 | 0.0 | 0.0 | 0.00 | 0.00 | 0.00 | 77 | 1050.4 |
| 20260508012855 | 47 | 208 | 0.0 | 0.0 | 0.00 | 0.00 | 0.00 | 76 | 1050.4 |
| 20260508012352 | 47 | 207 | 0.0 | 0.0 | 0.00 | 0.00 | 0.00 | 74 | 1050.4 |